P/2001 T4 (NEAT) 

T 2002 May 12.52564 TT                                  Nakano

q   8.5691606            (2000.0)            P               Q

n   0.01899694     Peri.  321.49213     +0.87893095     -0.41265210

a  13.9106338      Node    64.47804     +0.47620613     +0.73128186

e   0.3839849      Incl.   15.36834     +0.02661038     +0.54308847

P  51.88

From 35 observations 2001 Aug. 27-Nov. 21.

Residuals in seconds of arc 

2001/                     011018 644  0.2+  0.9+    011029 568  0.3-  0.2+  

010827 699 (0.5-  4.5-)   011021 644  1.1-  0.1+    011029 568  0.0   0.1-  

010827 699  0.5-  1.4-    011021 644  0.6-  0.3+    011029 568  0.3-  0.1+  

010827 699 (2.4-  2.7+)   011023 644 (0.7+  2.3+)   011029 568  0.0   0.1+  

010827 699  0.3+  1.0+    011023 644 (0.9+  2.9+)   011029 568  0.5-  0.1-  

011015 644  0.2-  0.3-    011023 644  1.2+  1.7+    011114 402  1.1-  0.5+  

011015 644  0.5+  0.5-    011023 402  0.2-  0.1-    011114 402  0.6-  0.2+  

011015 644  0.2+  0.8-    011023 402  0.1-  0.9-    011114 402  0.7-  0.4+  

011015 046 (3.5+  0.8+)   011023 402 (0.6+  2.2-)   011120 204 (4.1-  0.3+) 

011015 046  0.1-  1.6-    011025 402  0.7+  0.7-    011120 204  0.5+  0.4-  

011016 644  0.5+  0.6+    011025 402  0.5-  0.6-    011121 360  0.7+  0.2+  

011016 644  0.1+  0.1+    011025 402  0.1-  0.2+    011121 360  0.7+  0.5-  

011016 644  0.7+  0.8+    011029 568  0.4-  0.1-    011121 360  0.6+  0.8-  

011018 644  0.4+  0.7+    011029 568  0.5-  0.3-    

011018 644  0.4+  0.8+    011029 568  0.1-  0.1+    



NAKANO

         **** Don't distribute anyone except personal use only ****

                (C) Copyright 2001 OAA/ComputingSection

write mail from CFAD0::NAKANO on 2001-12-24 03:27:27(JST).

 

◎P/2001 T4の軌道と予報位置です



 11月に入って,ダイニックの杉江淳氏の11月14日の観測が報告されました.

氏の CCD全光度は,18.7等でした.



    P/2001 T4 (NEAT) 

T 2002 May 20.95803 TT                                 Nakano

q   8.5644961            (2000.0)            P               Q

n   0.01897137     Peri.  321.89366     +0.87604409     -0.41874557

a  13.9231299      Node    64.47452     +0.48127249     +0.72794691

e   0.3848728      Incl.   15.36883     +0.03038980     +0.54290463

P  51.95

From 23 observations 2001 Aug. 27-Nov. 14.



Date/        TT  R.A.(2000) Decl.     Delta   r     Daily motion  Mag.  Moon Age

              h    h  m       。  ,                      ,  / PA 。  m1      。

2001 Nov. 15 12  01 12.70  -05 32.9   7.812  8.591     3.3 / 275  18.8  138  .00

          16 12  01 12.48  -05 32.6   7.822  8.591     3.2 / 276  18.8  124  .02

          17 12  01 12.26  -05 32.2   7.832  8.591     3.1 / 277  18.8  111  .06

          18 12  01 12.06  -05 31.8   7.843  8.591     3.1 / 279  18.8   98  .12

          19 12  01 11.85  -05 31.3   7.854  8.590     3.0 / 280  18.8   85  .19

          20 12  01 11.65  -05 30.8   7.865  8.590     2.9 / 281  18.8   73  .27

          21 12  01 11.46  -05 30.3   7.876  8.590     2.9 / 283  18.8   61  .36

          22 12  01 11.28  -05 29.6   7.887  8.589     2.8 / 284  18.8   49  .46

          23 12  01 11.09  -05 29.0   7.899  8.589     2.7 / 286  18.8   38  .55

          24 12  01 10.92  -05 28.2   7.911  8.589     2.6 / 287  18.8   26  .64

          25 12  01 10.75  -05 27.5   7.923  8.589     2.6 / 289  18.8   15  .73

          26 12  01 10.59  -05 26.6   7.935  8.588     2.5 / 291  18.8    7  .81

          27 12  01 10.43  -05 25.7   7.947  8.588     2.4 / 293  18.8   13  .88

          28 12  01 10.28  -05 24.8   7.960  8.588     2.4 / 295  18.8   25  .94

          29 12  01 10.14  -05 23.8   7.973  8.588     2.3 / 297  18.8   37  .98

          30 12  01 10.01  -05 22.8   7.986  8.587     2.2 / 299  18.9   50 1.00

     Dec.  1 12  01 09.88  -05 21.7   7.999  8.587     2.2 / 302  18.9   64 1.00

           2 12  01 09.75  -05 20.5   8.012  8.587     2.1 / 305  18.9   77  .97

           3 12  01 09.64  -05 19.3   8.026  8.586     2.1 / 307  18.9   91  .92

           4 12  01 09.53  -05 18.1   8.039  8.586     2.0 / 310  18.9  105  .85

           5 12  01 09.42  -05 16.8   8.053  8.586     2.0 / 313  18.9  119  .75

           6 12  01 09.33  -05 15.4   8.067  8.586     1.9 / 316  18.9  133  .65

           7 12  01 09.24  -05 14.0   8.081  8.585     1.9 / 320  18.9  147  .54

           8 12  01 09.15  -05 12.6   8.095  8.585     1.9 / 323  18.9  161  .42

           9 12  01 09.08  -05 11.1   8.109  8.585     1.9 / 327  18.9  172  .31

          10 12  01 09.01  -05 09.5   8.124  8.585     1.8 / 330  18.9  168  .21

          11 12  01 08.95  -05 07.9   8.139  8.584     1.8 / 334  18.9  156  .13

          12 12  01 08.90  -05 06.2   8.153  8.584     1.8 / 338  18.9  142  .06

          13 12  01 08.85  -05 04.5   8.168  8.584     1.8 / 341  18.9  129  .02

          14 12  01 08.81  -05 02.8   8.183  8.584     1.9 / 345  18.9  115  .00

          15 12  01 08.78  -05 01.0   8.198  8.583     1.9 / 349  18.9  102  .00

          16 12  01 08.75  -04 59.1   8.213  8.583     1.9 / 352  18.9   90  .03

          17 12  01 08.74  -04 57.3   8.229  8.583     1.9 / 356  18.9   77  .07

          18 12  01 08.73  -04 55.3   8.244  8.583     2.0 / 359  18.9   65  .13

          19 12  01 08.72  -04 53.3   8.259  8.583     2.0 /   2  18.9   53  .20

          20 12  01 08.73  -04 51.3   8.275  8.582     2.1 /   5  18.9   41  .28

          21 12  01 08.74  -04 49.2   8.291  8.582     2.1 /   8  18.9   30  .37

          22 12  01 08.76  -04 47.1   8.306  8.582     2.2 /  10  18.9   18  .46

          23 12  01 08.79  -04 44.9   8.322  8.582     2.3 /  13  18.9    8  .56

          24 12  01 08.82  -04 42.7   8.338  8.581     2.3 /  15  18.9    9  .65

          25 12  01 08.86  -04 40.4   8.354  8.581     2.4 /  18  18.9   20  .74

          26 12  01 08.91  -04 38.1   8.370  8.581     2.5 /  20  18.9   32  .83

          27 12  01 08.97  -04 35.8   8.386  8.581     2.6 /  22  19.0   45  .90

          28 12  01 09.03  -04 33.4   8.402  8.580     2.6 /  24  19.0   58  .95

          29 12  01 09.10  -04 31.0   8.418  8.580     2.7 /  25  19.0   72  .99

          30 12  01 09.18  -04 28.5   8.434  8.580     2.8 /  27  19.0   86 1.00

          31 12  01 09.26  -04 26.0   8.450  8.580     2.9 /  28  19.0  100  .98

2002 Jan.  1 12  01 09.36  -04 23.4   8.466  8.580     3.0 /  30  19.0  114  .94

NAKANO

         **** Don't distribute anyone except personal use only ****

                (C) Copyright 2001 OAA/ComputingSection

write mail from CFAD0::NAKANO on 2001-11-18 05:30:23(JST).

 



戻ります。